sat.trackr.live / text

‹ back to catalog

WORLDVIEW-2 (WV-2)

NORAD 35946 · 2009-055A

PAYLOAD ACTIVE UNKNOWN

§ Identity

Operator
Country
US
Launch date
2009-10-08
Launch site
AFWTR
Launch vehicle
Mass (kg)
RCS (m²)
7.03

Purposes: earth_obs

External: N2YO · Heavens-Above · Gunter

§ Orbital elements

Epoch: 2026-09-04T05:06:42.592608Z

Period
100.14 min
Inclination
98.4734°
Eccentricity
0.0004176
Mean motion
14.37917937 rev/d
Perigee alt
762.4 km
Apogee alt
768.4 km
Semi-major
7,143.5 km
B*
2.5807e-5
RAAN
319.5796°
Arg perigee
3.3158°
Mean anomaly
356.8056°
Rev number
88,700

§ Raw data

WORLDVIEW-2 (WV-2)1 35946U 09055A   26247.21299297  .00000034  00000+0  25807-4 0  99902 35946  98.4734 319.5796 0004176   3.3158 356.8056 14.37917937887009

JSON: /api/v1/satellites/35946 · /tle

For live sub-satellite position, see the globe view (requires WebGL).

§ Visibility from observer

Set your observer location to see the next 7 days of passes ≥ 10°. The values pass through the URL so the page stays shareable.

No JS? Fill the form by hand. The geolocation button needs JavaScript.